Voltar ao catálogo

USA 40 R/B DEB

AtivoHEO
NORAD 44523·DEBRIS·🇺🇸 United States

Lançado Aug 8, 1989 de Cape Canaveral Space Force Station

Loading…

Próximas Passagens (próximas 24 horas)

TLE

AtualizadoSource: Space-Track

Época: Sep 12, 2026, 22:14 UTC

1 44523U 89061BW  26255.92692618  .00003539  00000-0  36234-2 0  9995
2 44523  57.0036  90.8984 3079593 147.4184 236.1013  8.67217352 65226

Acompanhe USA 40 R/B DEB em tempo real com AllMySat

Download on the App Store